Bad Axe, MI

2:12 PM EDT on March 29, 2017 (GMT -0400)
Huron County Memorial

Weather History for KBAX - July, 2013

Change the Weather History Date:

Monday, July 8, 2013

  Actual Average (KP58) Record (KP58)
Temperature  
Mean Temperature 74 °F -  
Max Temperature 79 °F 73 °F 91 °F (2007)
Min Temperature 68 °F 58 °F 53 °F (2000)
Cooling Degree Days 8    
Growing Degree Days 24 (Base 50)    
Moisture  
Dew Point 71 °F    
Average Humidity 95    
Maximum Humidity 100    
Minimum Humidity 81    
Precipitation  
Precipitation 0.00 in - - ()
Sea Level Pressure  
Sea Level Pressure 30.00 in    
Wind  
Wind Speed 3 mph (South)    
Max Wind Speed 8 mph    
Max Gust Speed 16 mph    
Visibility 8 miles    
Events Rain    
Averages and records for this station are not official NWS values.
T = Trace of Precipitation, MM = Missing Value Source: NWS Daily Summary

Daily Weather History Graph

Daily Weather History Graph

Search for Another Location

Airport or City:

Trip Planner

Search our weather history database for the weather conditions in past years. The results will help you decide how hot, cold, wet, or windy it might be!

Date:

Astronomy

Jul. 08, 2013 Rise Set
Actual Time 5:58 AM EDT 9:15 PM EDT
Civil Twilight 5:22 AM EDT 9:50 PM EDT
Nautical Twilight 4:37 AM EDT 10:36 PM EDT
Astronomical Twilight 3:40 AM EDT 11:32 PM EDT
Moon 6:29 AM EDT (7/8) 9:13 PM EDT (7/8)
Length of Visible Light 16h 27m
Length of Day
15h 17m
New Moon, 0% of the Moon is Illuminated
Jul 8
New Moon
Jul 15
First Quarter
Jul 22
Full
Jul 29
Last Quarter
Aug 6
New

Hourly Weather History & Observations

Time (EDT) Temp. Dew Point Humidity Pressure Visibility Wind Dir Wind Speed Gust Speed Precip Events Conditions
12:12 AM 71.6 °F 70.7 °F 97% 29.99 in 7.0 mi Calm Calm - N/A   Mostly Cloudy
12:33 AM 71.8 °F 70.7 °F 96% 30.00 in 7.0 mi South 4.6 mph - N/A   Overcast
12:53 AM 71.2 °F 70.3 °F 97% 30.00 in 7.0 mi SW 3.5 mph - N/A   Mostly Cloudy
1:12 AM 71.1 °F 70.2 °F 97% 30.01 in 7.0 mi SSW 3.5 mph - N/A   Mostly Cloudy
1:33 AM 71.1 °F 70.2 °F 97% 30.00 in 7.0 mi Calm Calm - N/A   Mostly Cloudy
1:53 AM 70.5 °F 69.8 °F 98% 30.00 in 7.0 mi Calm Calm - N/A   Mostly Cloudy
2:12 AM 70.7 °F 69.4 °F 96% 30.00 in 7.0 mi Calm Calm - N/A   Overcast
2:33 AM 70.9 °F 69.4 °F 95% 30.00 in 7.0 mi Calm Calm - N/A   Overcast
2:53 AM 71.1 °F 69.4 °F 95% 30.00 in 10.0 mi Calm Calm - N/A   Overcast
3:12 AM 71.1 °F 69.1 °F 93% 30.00 in 10.0 mi Calm Calm - N/A   Mostly Cloudy
3:33 AM 70.7 °F 68.5 °F 93% 30.01 in 10.0 mi West 4.6 mph - N/A   Scattered Clouds
3:52 AM 70.3 °F 68.5 °F 94% 30.00 in 10.0 mi Calm Calm - N/A   Mostly Cloudy
4:12 AM 70.3 °F 68.4 °F 93% 30.00 in 10.0 mi WSW 3.5 mph - N/A   Scattered Clouds
4:33 AM 70.0 °F 68.4 °F 95% 30.00 in 10.0 mi WSW 4.6 mph - N/A   Mostly Cloudy
4:52 AM 70.3 °F 68.5 °F 94% 30.00 in 10.0 mi Calm Calm - N/A   Mostly Cloudy
5:12 AM 69.3 °F 68.0 °F 96% 30.00 in 7.0 mi Calm Calm - N/A   Scattered Clouds
5:33 AM 68.5 °F 67.6 °F 97% 30.00 in 7.0 mi SSW 3.5 mph - N/A   Clear
5:52 AM 68.2 °F 67.6 °F 98% 30.00 in 5.0 mi Calm Calm - N/A   Clear
6:13 AM 68.2 °F 68.0 °F 99% 30.00 in 5.0 mi Calm Calm - N/A   Clear
6:33 AM 68.2 °F 68.0 °F 99% 30.00 in 5.0 mi Calm Calm - N/A   Clear
6:52 AM 69.1 °F 68.9 °F 99% 30.01 in 5.0 mi Calm Calm - N/A   Clear
7:13 AM 70.5 °F 70.0 °F 98% 30.00 in 5.0 mi SSW 3.5 mph - N/A   Clear
7:33 AM 72.0 °F 70.9 °F 96% 30.00 in 7.0 mi SSW 4.6 mph - N/A   Mostly Cloudy
7:52 AM 72.5 °F 70.7 °F 94% 30.00 in 7.0 mi SSW 5.8 mph - N/A   Mostly Cloudy
8:13 AM 72.1 °F 70.9 °F 96% 30.00 in 7.0 mi SSW 4.6 mph - N/A   Scattered Clouds
8:33 AM 73.8 °F 71.6 °F 93% 30.00 in 7.0 mi SSW 5.8 mph - N/A   Scattered Clouds
8:52 AM 74.7 °F 72.0 °F 91% 30.01 in 10.0 mi SW 4.6 mph - N/A   Scattered Clouds
9:13 AM 74.3 °F 71.6 °F 91% 30.02 in 10.0 mi SSW 6.9 mph - N/A   Mostly Cloudy
9:33 AM 74.8 °F 72.1 °F 91% 30.01 in 10.0 mi SSW 4.6 mph - N/A   Scattered Clouds
9:52 AM 75.7 °F 72.7 °F 90% 30.01 in 10.0 mi SSW 5.8 mph - N/A   Mostly Cloudy
10:13 AM 75.4 °F 72.0 °F 89% 30.01 in 10.0 mi SW 5.8 mph - N/A   Overcast
10:32 AM 75.6 °F 72.5 °F 90% 30.01 in 10.0 mi South 4.6 mph - N/A   Mostly Cloudy
10:53 AM 75.9 °F 72.3 °F 89% 30.01 in 10.0 mi South 3.5 mph - N/A   Mostly Cloudy
11:13 AM 77.0 °F 72.1 °F 85% 30.01 in 10.0 mi SSW 3.5 mph - N/A   Scattered Clouds
11:32 AM 78.1 °F 72.9 °F 84% 30.01 in 10.0 mi SSW 4.6 mph - N/A   Scattered Clouds
11:53 AM 78.4 °F 72.9 °F 83% 30.01 in 10.0 mi ESE 4.6 mph - N/A   Mostly Cloudy
12:13 PM 77.9 °F 72.9 °F 84% 30.01 in 10.0 mi SE 4.6 mph - N/A   Overcast
12:32 PM 78.3 °F 72.5 °F 82% 30.01 in 10.0 mi SSE 5.8 mph - N/A   Mostly Cloudy
12:53 PM 78.6 °F 73.0 °F 83% 30.00 in 10.0 mi SSE 4.6 mph - N/A   Overcast
1:13 PM 79.7 °F 73.4 °F 81% 30.00 in 10.0 mi SSE 4.6 mph - N/A   Scattered Clouds
1:32 PM 78.8 °F 72.5 °F 81% 30.00 in 10.0 mi SSE 8.1 mph - N/A   Clear
1:53 PM 77.7 °F 72.5 °F 84% 30.01 in 10.0 mi WSW 4.6 mph - N/A   Mostly Cloudy
2:13 PM 70.7 °F 68.9 °F 94% 30.01 in 0.5 mi East 6.9 mph - N/A Rain Heavy Rain
2:32 PM 71.1 °F 70.3 °F 98% 30.01 in 5.0 mi NNW 4.6 mph 16.1 mph N/A Rain Heavy Rain
2:53 PM 70.9 °F 70.7 °F 99% 30.00 in 1.0 mi Calm Calm - N/A Rain Heavy Rain
3:13 PM 69.8 °F 69.8 °F 100% 30.01 in 1.0 mi Calm Calm - N/A Rain Heavy Rain
3:32 PM 71.4 °F 71.4 °F 100% 30.00 in 7.0 mi Calm Calm - N/A   Overcast
3:53 PM 71.8 °F 71.8 °F 100% 30.00 in 5.0 mi East 4.6 mph - N/A Rain Rain
4:13 PM 70.7 °F 70.7 °F 100% 30.00 in 0.5 mi SE 6.9 mph - N/A Rain Heavy Rain
4:33 PM 70.5 °F 70.5 °F 100% 30.01 in 3.0 mi ESE 4.6 mph - N/A Rain Heavy Rain
4:53 PM 70.9 °F 70.9 °F 100% 30.01 in 7.0 mi SSE 3.5 mph - N/A Rain Rain
5:13 PM 71.6 °F 71.6 °F 100% 30.01 in 7.0 mi SE 4.6 mph - N/A Rain Light Rain
5:33 PM 71.1 °F 71.1 °F 100% 30.01 in 7.0 mi SE 5.8 mph - N/A Rain Rain
5:53 PM 70.9 °F 70.9 °F 100% 30.00 in 10.0 mi ESE 3.5 mph - N/A   Overcast
6:13 PM 71.1 °F 71.1 °F 100% 29.99 in 10.0 mi SE 5.8 mph - N/A   Overcast
6:33 PM 70.9 °F 70.9 °F 100% 29.99 in 10.0 mi SSE 5.8 mph - N/A   Mostly Cloudy
6:53 PM 70.9 °F 70.9 °F 100% 29.99 in 10.0 mi SSE 6.9 mph - N/A   Overcast
7:13 PM 70.9 °F 70.9 °F 100% 29.98 in 10.0 mi SSE 6.9 mph - N/A Rain Rain
7:33 PM 70.7 °F 70.3 °F 99% 29.98 in 10.0 mi SSE 6.9 mph - N/A Rain Rain
7:53 PM 70.7 °F 70.7 °F 100% 29.98 in 10.0 mi South 6.9 mph - N/A   Overcast
8:13 PM 70.7 °F 70.7 °F 100% 29.98 in 7.0 mi SSE 5.8 mph - N/A Rain Rain
8:33 PM 70.7 °F 70.7 °F 100% 29.99 in 7.0 mi South 6.9 mph - N/A Rain Rain
8:53 PM 70.0 °F 70.0 °F 100% 29.98 in 5.0 mi South 8.1 mph - N/A Rain Rain
9:13 PM 70.0 °F 70.0 °F 100% 29.98 in 5.0 mi South 6.9 mph - N/A   Drizzle
9:33 PM 69.8 °F 69.8 °F 100% 29.99 in 7.0 mi South 5.8 mph - N/A   Overcast
9:53 PM 69.8 °F 69.8 °F 100% 29.99 in 10.0 mi South 5.8 mph - N/A   Overcast
10:13 PM 69.8 °F 69.8 °F 100% 29.99 in 10.0 mi South 5.8 mph - N/A   Overcast
10:33 PM 69.8 °F 69.8 °F 100% 29.99 in 10.0 mi SSE 6.9 mph - N/A   Overcast
10:53 PM 69.8 °F 69.8 °F 100% 29.99 in 10.0 mi South 6.9 mph - N/A   Overcast
11:13 PM 69.8 °F 69.8 °F 100% 29.99 in 10.0 mi South 5.8 mph - N/A   Overcast
11:33 PM 69.8 °F 69.8 °F 100% 29.99 in 10.0 mi South 5.8 mph - N/A   Overcast
11:52 PM 69.8 °F 69.8 °F 100% 29.99 in 7.0 mi South 6.9 mph - N/A   Overcast